Other Surface Observations
Issued by NWS

Home | Current Version | Previous Version | Text Only | Print | Product List | Glossary On
Versions: 1 2 3 4 5 6 7 8 9 10 11 12 13 14 15 16 17 18 19 20 21 22 23 24 25 26 27 28 29 30 31 32 33 34 35 36 37 38 39 40 41 42 43 44 45 46 47 48 49 50
000
SXUS52 KTAE 020419
OSOTAE
OSOTAE
North Florida/South Alabama/Southwest Georgia Weather Roundup
National Weather Service Tallahassee Florida
1200 AM EDT SUN AUG 02 2015

Note: "fair" indicates few or no clouds below 12,000 feet with no
significant weather and/or obstructions to visibility.

!FLZ017-115-028-034-025-020500
...North Florida...

CITY           SKY/WX    TMP DP  RH WIND       PRES   REMARKS
TALLAHASSEE    PTCLDY    80  77  90 CALM      29.86S
APALACHICOLA   PTCLDY    80  75  84 CALM      29.86S
PERRY          CLOUDY    75  75 100 E6        29.87S
CROSS CITY       N/A     77  75  93 SW5       29.88F
JACKSONVILLE   CLOUDY    77  72  84 S10       29.91F
$$

!FLZ112-006-005-002-011-020500
...Florida Panhandle...

CITY           SKY/WX    TMP DP  RH WIND       PRES   REMARKS
MARIANNA       MOCLDY    77  73  87 VRB5      29.89R
BONIFAY        FAIR      79  77  94 CALM      29.89R
PANAMA CITY NW FAIR      80  76  87 CALM      29.86R
TYNDALL AFB    PTCLDY    77  76  96 NE3       29.86S
TYND DRONE APT FAIR      77  76  98 N3        29.86R
DE FUNIAK SPR  MOCLDY    78  76  92 N5        29.89S
EGLIN AFB      TSTM      79  74  85 NW9G18    29.88R
DESTIN         MOCLDY    83  72  69 N9        29.86S
HURLBURT       PTCLDY    81  76  82 NE8       29.86R
CRESTVIEW      MOCLDY    80  74  81 N3        29.89S
PENSACOLA      PTCLDY    78  75  90 NW6       29.86F
$$

!ALZ063-066-020500
...South Alabama...

CITY           SKY/WX    TMP DP  RH WIND       PRES   REMARKS
DOTHAN         PTCLDY    77  71  82 E7        29.94R
OZARK CAIRNS   PTCLDY    77  74  90 NE6       29.90R
FT RUCKER HELI PTCLDY    77  73  87 CALM      29.89S
RUCKER HELI 3  FAIR      78  73  84 NE2       29.92R
RUCKER HELI 2  FAIR      78  76  93 NE7       29.90S
FLORALA APT    MOCLDY    79  72  79 NE5       29.91R
ANDALUSIA      MOCLDY    82  74  76 E6        29.89S
TROY           MOCLDY    78  75  90 CALM      29.91F
EUFALA         CLOUDY    77  75  93 CALM      29.90R
MOBILE         PTCLDY    77  67  71 NW5       29.90S
$$

!GAZ120>161-020500
...Southwest and South Central Georgia...

CITY           SKY/WX    TMP DP  RH WIND       PRES   REMARKS
THOMASVILLE    MOCLDY    77  77 100 CALM      29.89S
BAINBRIDGE     TSTM      79  77  94 NE14      29.90S
MOODY AFB      CLOUDY    77  75  93 SE7       29.88R
VALDOSTA       MOCLDY    77  75  93 S9        29.89R
MOULTRIE       CLOUDY    77  72  83 NW5       29.90S
BLAKELY        MOCLDY    77  73  88 E3        29.91F
ALBANY         MOCLDY    75  73  93 N3        29.91F
TIFTON         FAIR      74  73  98 N3        29.89S
FITZGERALD     FAIR      76  75  95 N5        29.93S
CORDELE        FAIR      78  76  92 CALM      29.93S
AMERICUS       FAIR      73  73 100 NE3       29.93F
HOMERVILLE     MOCLDY    79  79 100 CALM      29.91R
$$

!GMZ750-755-770-775-020500
...Coastal and Buoy Obs...

STATION/POSITION TIME  TEMP    WIND        PRES    VSBY  WAVE
                       AIR SEA DIR/SP/G                  HT/PER
                 (UTC) (F)     (DEG/KT/KT) (MB)    (MI)  (FT/S)
KEATON BEACH     0400   76     100/  9/ 10 1011.3F
CEDAR KEY        0400   80     190/ 16/ 19 1012.3F
C TOWER          0400   81      10/  7/  7 1011.0F
APALACHICOLA BUO 0350   80 85  230/ 21/ 27 1011.5F         6/ 7
PANAMA CITY BUOY 0350   86 86  320/ 12/ 14 1010.7F         4/ 7
MOBILE BUOY      0350   86 87  330/  6/  6 1012.0R         1/ 4
ORANGE BCH AL BU 0350   87 86  330/  8/ 10 1010.7S         1/ 5
$$



USA.gov is the U.S. government's official web portal to all federal, state and local government web resources and services.